COSMOS 2251 DEB

Satellite information

Favourite Embed

Satellite Type and Status

DEBRISIN ORBIT

Key statistics

Satellite COSMOS 2251 DEB at a glance.

Uptime

11769

Days in orbit

Revolutions

≈ 14.4

Per day

Orbit

LEO

Low Earth Orbit

Inclination

74.0

Latest

Satellite identification and parameters

Extended collection of information and parameters for COSMOS 2251 DEB.

Object identification

Identified? True

Debris? True

Object name: COSMOS 2251 DEB

International designator: 1993-036UG

Object number (NORAD): 34546

Object ID (CCSDS): 34546

Country: COMMONWEALTH OF INDEPENDENT STATES (CIS)

Current information (Y/N): Y

RCS size: SMALL

Orbital parameters

Period: 99.672 minutes

Inclination: 74.0298 deg

SMA: 7121.033 km

Apoapsis: 758.762 km

Periapsis: 727.033 km

RAAN: 75.1823 deg

Eccentricy: 0.00222783

Argument of periapsis: 177.6728 deg

Mean anomaly: 301.9703 deg

Mean motion: 14.44735351 rev/day

Mean motion (dot): 0.00003465 rev/day2

B* drag term: 0.00100263 1/REarth

Two-line elements (TLE)

Creation date: Sept. 4, 2025, 4:29 a.m.

Reference frame: TEME

Reference center: EARTH

Epoch: Sept. 3, 2025, 10:20 p.m. UTC

TLE line 0: 0 COSMOS 2251 DEB

TLE line 1: 1 34546U 93036UG 25246.93093848 .00003465 00000-0 10026-2 0 9995

TLE line 2: 2 34546 74.0298 75.1823 0022278 177.6728 301.9703 14.44735351865840

Live tracking on map

Real-time ground track for satellite COSMOS 2251 DEB.

In-orbit conjunctions

A list of the most updated potential collisions computed for object COSMOS 2251 DEB.

Target Orbit TCA Probability of collision Miss distance Type
DELTA 1 DEB SSO 2025-07-13 21:51:12 0.0001759711 584.0 (m) DEBRIS
OAO 2 LEO 2025-03-16 09:04:03 0.0007778558 795.0 (m) PAYLOAD
COSMOS 1023 LEO 2025-03-11 13:36:43 0.0007343728 102.0 (m) PAYLOAD

Associated space launch

Military communications satellite. Destroyed in a collision with Iridium 33.

COSMOS 2251 DEB was lifted into orbit during the mission ‘Kosmos-3M | Strela-2M 51’, on board a Kosmos-3M space rocket.

The launch took place on June 16, 1993, 4:17 a.m. from 132/1 (132L).

For more information about the launch, click the button.

Launch to space Kosmos-3M | Strela-2M 51
Kosmos-3M | Strela-2M 51

Agency: N/A

Status: Launch Successful

Launch date: June 16, 1993, 4:17 a.m. UTC

Rocket: Kosmos-3M

Launch pad: 132/1 (132L)

Location: Plesetsk Cosmodrome, Russian Federation

...

Latest news about this satellite

There are no fresh news available about this satellite. Check back as we update our databases every day.


Newsletter sign-up

Weekly statistics, charts and insights to help you stay on top of the space industry.